Sandspit, British Columbia

5:07 AM PDT on July 28, 2017 (GMT -0700)
Sandspit

Weather History for CYZP - February, 2014

Change the Weather History Date:

Monday, February 17, 2014

  Actual Average Record
Temperature  
Mean Temperature 36 °F -  
Max Temperature 43 °F 44 °F 50 °F (1998)
Min Temperature 30 °F 35 °F 24 °F (2011)
Degree Days  
Heating Degree Days 28    
Moisture  
Dew Point 32 °F    
Average Humidity 86    
Maximum Humidity 100    
Minimum Humidity 55    
Precipitation  
Precipitation 0.00 in 0.15 in - ()
Sea Level Pressure  
Sea Level Pressure 29.38 in    
Wind  
Wind Speed 12 mph ()    
Max Wind Speed 29 mph    
Max Gust Speed 41 mph    
Visibility 8.5 miles    
Events Rain , Snow    
Averages and records for this station are not official NWS values.
T = Trace of Precipitation, MM = Missing Value Source: Averaged Metar Reports

Daily Weather History Graph

Daily Weather History Graph

Search for Another Location

Airport or City:

Trip Planner

Search our weather history database for the weather conditions in past years. The results will help you decide how hot, cold, wet, or windy it might be!

Date:

Astronomy

Feb. 17, 2014 Rise Set
Actual Time 8:00 AM PST 6:02 PM PST
Civil Twilight 7:24 AM PST 6:38 PM PST
Nautical Twilight 6:44 AM PST 7:19 PM PST
Astronomical Twilight 6:04 AM PST 7:59 PM PST
Moon 9:36 PM PST (2/17) 8:37 AM PST (2/17)
Length of Visible Light 11h 13m
Length of Day
10h 02m
Waning Gibbous, 93% of the Moon is Illuminated
Feb 17
Waning Gibbous
Feb 22
Last Quarter
Mar 1
New
Mar 8
First Quarter
Mar 16
Full

Hourly Weather History & Observations

Time (PST) Temp. Windchill Dew Point Humidity Pressure Visibility Wind Dir Wind Speed Gust Speed Precip Events Conditions
12:00 AM 37.4 °F 32.8 °F 35.6 °F 93% 29.14 in 9.0 mi South 5.8 mph - N/A Rain Light Rain
12:15 AM 39.2 °F 32.0 °F 35.6 °F 87% 29.15 in 9.0 mi SW 11.5 mph - N/A   Overcast
12:43 AM 39.2 °F 28.7 °F 35.6 °F 87% 29.16 in 9.0 mi WSW 23.0 mph 28.8 mph N/A   Scattered Clouds
12:53 AM 39.2 °F 28.3 °F 35.6 °F 87% 29.18 in 9.0 mi WSW 25.3 mph 35.7 mph N/A Rain Light Rain
1:00 AM 38 °F - 35 °F 83% 29.18 in - WSW 5.8 mph - -  
1:00 AM 39.2 °F 28.3 °F 35.6 °F 87% 29.18 in 9.0 mi WSW 25.3 mph 34.5 mph N/A Rain Light Rain
1:17 AM 39.2 °F 29.0 °F 33.8 °F 81% 29.20 in 9.0 mi WSW 21.9 mph 32.2 mph N/A   Partly Cloudy
1:27 AM 39.2 °F 28.7 °F 35.6 °F 87% 29.21 in 9.0 mi WSW 23.0 mph 29.9 mph N/A Rain Light Rain
1:41 AM 39.2 °F 29.0 °F 33.8 °F 81% 29.22 in 9.0 mi WSW 21.9 mph 28.8 mph N/A   Partly Cloudy
2:00 AM 39.2 °F 28.3 °F 33.8 °F 81% 29.24 in 9.0 mi WSW 25.3 mph 32.2 mph N/A   Clear
2:06 AM 39.2 °F 28.7 °F 33.8 °F 81% 29.24 in 9.0 mi WSW 23.0 mph 32.2 mph N/A Rain Light Rain
2:24 AM 39.2 °F 27.6 °F 33.8 °F 81% 29.24 in 9.0 mi WSW 28.8 mph 36.8 mph N/A   Partly Cloudy
3:00 AM 39.2 °F 28.0 °F 32.0 °F 75% 29.27 in 9.0 mi WSW 26.5 mph 38.0 mph N/A   Mostly Cloudy
3:10 AM 37.4 °F 25.4 °F 33.8 °F 87% 29.28 in 9.0 mi SW 27.6 mph 41.4 mph N/A Rain Light Rain
3:24 AM 37.4 °F 27.2 °F 32.0 °F 81% 29.29 in 9.0 mi SW 19.6 mph 31.1 mph N/A   Overcast
3:48 AM 37.4 °F 25.6 °F 32.0 °F 81% 29.29 in 9.0 mi WSW 26.5 mph 34.5 mph N/A Rain Light Rain
4:00 AM 37 °F - 33 °F 79% 29.29 in - SW 6.9 mph - -  
4:00 AM 37.4 °F 25.4 °F 33.8 °F 87% 29.29 in 9.0 mi WSW 27.6 mph 35.7 mph N/A Rain Light Rain
4:09 AM 37.4 °F 25.9 °F 33.8 °F 87% 29.30 in 9.0 mi WSW 25.3 mph 36.8 mph N/A   Mostly Cloudy
5:00 AM 37.4 °F 27.5 °F 30.2 °F 75% 29.34 in 9.0 mi SW 18.4 mph 25.3 mph N/A   Partly Cloudy
6:00 AM 37.4 °F 29.8 °F 28.4 °F 70% 29.37 in 9.0 mi SSW 11.5 mph 21.9 mph N/A   Mostly Cloudy
7:00 AM 34 °F - 29 °F 75% 29.37 in - SSE 3.5 mph - -  
7:00 AM 35.6 °F 29.2 °F 28.4 °F 75% 29.38 in 9.0 mi SE 8.1 mph - N/A   Scattered Clouds
8:00 AM 35.6 °F 27.5 °F 30.2 °F 81% 29.39 in 9.0 mi SSE 11.5 mph - N/A   Overcast
9:00 AM 35.6 °F 30.7 °F 30.2 °F 81% 29.39 in 9.0 mi South 5.8 mph - N/A   Overcast
9:05 AM 35.6 °F 31.7 °F 30.2 °F 81% 29.39 in 9.0 mi South 4.6 mph - N/A Rain Light Rain
9:18 AM 35.6 °F 27.1 °F 32.0 °F 87% 29.40 in 9.0 mi SSE 12.7 mph - N/A   Mostly Cloudy
9:30 AM 35.6 °F 27.5 °F 32.0 °F 87% 29.41 in 9.0 mi South 11.5 mph - N/A Rain Light Rain
9:33 AM 35.6 °F 27.1 °F 32.0 °F 87% 29.41 in 9.0 mi South 12.7 mph - N/A Rain Rain
9:35 AM 35.6 °F 27.5 °F 32.0 °F 87% 29.41 in 8.0 mi South 11.5 mph - N/A Rain Rain
9:41 AM 33.8 °F 27.7 °F 32.0 °F 93% 29.41 in 7.0 mi South 6.9 mph - N/A   Mostly Cloudy
9:51 AM 33.8 °F 25.8 °F 32.0 °F 93% 29.41 in 9.0 mi SE 10.4 mph - N/A Rain Light Rain
9:59 AM 33.8 °F 24.8 °F 33.8 °F 100% 29.42 in 9.0 mi SSE 12.7 mph - N/A Rain Light Rain
10:00 AM 34 °F - 33 °F 92% 29.41 in - SSE 9.2 mph - -  
10:00 AM 33.8 °F 24.8 °F 33.8 °F 100% 29.42 in 9.0 mi SSE 12.7 mph - N/A Rain Light Rain
10:21 AM 35.6 °F 26.6 °F 33.8 °F 93% 29.41 in 9.0 mi SSE 13.8 mph - N/A Rain Light Rain
10:27 AM 35.6 °F 27.5 °F 33.8 °F 93% 29.41 in 9.0 mi SSE 11.5 mph - N/A   Scattered Clouds
10:45 AM 35.6 °F 27.1 °F 33.8 °F 93% 29.43 in 9.0 mi South 12.7 mph - N/A Rain Light Rain
11:00 AM 37.4 °F 29.8 °F 33.8 °F 87% 29.43 in 9.0 mi South 11.5 mph - N/A Rain Light Rain
11:19 AM 39.2 °F 32.0 °F 32.0 °F 75% 29.43 in 9.0 mi South 11.5 mph 17.3 mph N/A   Partly Cloudy
12:00 PM 42.8 °F 38.0 °F 32.0 °F 66% 29.45 in 9.0 mi SSW 8.1 mph 18.4 mph N/A   Clear
12:57 PM 42.8 °F 34.3 °F 32.0 °F 66% 29.45 in 9.0 mi SW 19.6 mph 25.3 mph N/A   Clear
1:00 PM 43 °F - 32 °F 55% 29.44 in - SSW 8.1 mph - -  
1:00 PM 42.8 °F 35.1 °F 30.2 °F 61% 29.45 in 9.0 mi SSW 16.1 mph 25.3 mph N/A   Clear
2:00 PM 42.8 °F 36.2 °F 28.4 °F 57% 29.47 in 9.0 mi SSW 12.7 mph 21.9 mph N/A   Clear
3:00 PM 42.8 °F 37.5 °F 28.4 °F 57% 29.48 in 9.0 mi SSW 9.2 mph - N/A   Clear
4:00 PM 38 °F - 32 °F 71% 29.48 in - South 3.5 mph - -  
4:00 PM 39.2 °F 35.0 °F 32.0 °F 75% 29.49 in 9.0 mi SSW 5.8 mph - N/A   Mostly Cloudy
5:00 PM 37.4 °F 32.8 °F 33.8 °F 87% 29.48 in 9.0 mi SSE 5.8 mph - N/A   Overcast
6:00 PM 37.4 °F 32.1 °F 30.2 °F 75% 29.48 in 9.0 mi SSW 6.9 mph - N/A   Overcast
6:07 PM 37.4 °F 30.8 °F 32.0 °F 81% 29.48 in 9.0 mi SW 9.2 mph - N/A Rain Light Rain
6:56 PM 35.6 °F 32.8 °F 33.8 °F 93% 29.47 in 9.0 mi South 3.5 mph - N/A Rain Light Rain
7:00 PM 35 °F - 32 °F 86% 29.46 in - Calm Calm - -  
7:00 PM 35.6 °F 32.8 °F 33.8 °F 93% 29.47 in 9.0 mi South 3.5 mph - N/A Rain Light Rain
7:59 PM 33.8 °F 29.6 °F 33.8 °F 100% 29.46 in 9.0 mi SSE 4.6 mph - N/A Rain Light Rain
8:00 PM 33.8 °F 30.8 °F 33.8 °F 100% 29.46 in 8.0 mi SSE 3.5 mph - N/A Rain Light Rain
8:05 PM 33.8 °F 30.8 °F 32.0 °F 93% 29.46 in 7.0 mi SSE 3.5 mph - N/A   Overcast
8:07 PM 33.8 °F 30.8 °F 32.0 °F 93% 29.46 in 7.0 mi SSE 3.5 mph - N/A Snow Light Snow
8:15 PM 33.8 °F 29.6 °F 32.0 °F 93% 29.45 in 9.0 mi SSE 4.6 mph - N/A Rain , Snow Light Snow
8:17 PM 33.8 °F 29.6 °F 32.0 °F 93% 29.45 in 9.0 mi SSE 4.6 mph - N/A Rain Light Rain
8:21 PM 33.8 °F 29.6 °F 32.0 °F 93% 29.45 in 9.0 mi SSE 4.6 mph - N/A Rain Light Rain
8:32 PM 33.8 °F 30.8 °F 32.0 °F 93% 29.45 in 9.0 mi South 3.5 mph - N/A Rain Light Rain
8:39 PM 33.8 °F 30.8 °F 32.0 °F 93% 29.45 in 9.0 mi South 3.5 mph - N/A Rain Light Rain
8:46 PM 33.8 °F 30.8 °F 32.0 °F 93% 29.45 in 9.0 mi SSW 3.5 mph - N/A Rain Light Rain
8:54 PM 33.8 °F 29.6 °F 32.0 °F 93% 29.45 in 9.0 mi SW 4.6 mph - N/A   Overcast
9:00 PM 33.8 °F - 32.0 °F 93% 29.44 in 9.0 mi Calm Calm - N/A   Overcast
9:13 PM 33.8 °F - 32.0 °F 93% 29.45 in 9.0 mi SW 2.3 mph - N/A   Overcast
10:00 PM 31 °F - 31 °F 97% 29.43 in - South 1.2 mph - -  
10:00 PM 32.0 °F - 30.2 °F 93% 29.44 in 7.0 mi Variable 2.3 mph - N/A   Partly Cloudy
10:35 PM 32.0 °F 28.7 °F 30.2 °F 93% 29.44 in 5.0 mi SSE 3.5 mph - N/A   Scattered Clouds
10:41 PM 30.2 °F 25.4 °F 30.2 °F 100% 29.44 in 2.5 mi SE 4.6 mph - N/A   Scattered Clouds
10:42 PM 30.2 °F 25.4 °F 30.2 °F 100% 29.44 in 3.0 mi SE 4.6 mph - N/A   Scattered Clouds
10:43 PM 30.2 °F 25.4 °F 30.2 °F 100% 29.44 in 3.0 mi SE 4.6 mph - N/A   Mostly Cloudy
10:51 PM 32.0 °F 27.5 °F 32.0 °F 100% 29.44 in 8.0 mi SSE 4.6 mph - N/A   Mostly Cloudy
11:00 PM 32.0 °F 27.5 °F 32.0 °F 100% 29.44 in 9.0 mi SSE 4.6 mph - N/A   Mostly Cloudy
11:04 PM 32.0 °F 28.7 °F 30.2 °F 93% 29.44 in 9.0 mi SSE 3.5 mph - N/A   Scattered Clouds